Ocala, FL

3:02 AM EDT on July 27, 2017 (GMT -0400)
Ocala Regional-Taylor

Weather History for KOCF - August, 2014

Change the Weather History Date:

Monday, August 18, 2014

  Actual Average Record
Temperature  
Mean Temperature 80 °F -  
Max Temperature 89 °F 88 °F 95 °F (2001)
Min Temperature 71 °F 69 °F 69 °F (2002)
Cooling Degree Days 15    
Growing Degree Days 30 (Base 50)    
Moisture  
Dew Point 73 °F    
Average Humidity 85    
Maximum Humidity 100    
Minimum Humidity 58    
Precipitation  
Precipitation 0.00 in - - ()
Sea Level Pressure  
Sea Level Pressure 30.03 in    
Wind  
Wind Speed 2 mph (SW)    
Max Wind Speed 9 mph    
Max Gust Speed -    
Visibility 8 miles    
Events      
Averages and records for this station are not official NWS values.
T = Trace of Precipitation, MM = Missing Value Source: NWS Daily Summary

Daily Weather History Graph

Daily Weather History Graph

Search for Another Location

Airport or City:

Trip Planner

Search our weather history database for the weather conditions in past years. The results will help you decide how hot, cold, wet, or windy it might be!

Date:

Astronomy

Aug. 18, 2014 Rise Set
Actual Time 6:59 AM EDT 8:05 PM EDT
Civil Twilight 6:34 AM EDT 8:30 PM EDT
Nautical Twilight 6:04 AM EDT 8:59 PM EDT
Astronomical Twilight 5:34 AM EDT 9:30 PM EDT
Moon 1:10 AM EDT (8/18) 3:00 PM EDT (8/18)
Length of Visible Light 13h 56m
Length of Day
13h 06m
Last Quarter, 38% of the Moon is Illuminated
Aug 18
Last Quarter
Aug 25
New
Sep 2
First Quarter
Sep 8
Full
Sep 15
Last Quarter

Hourly Weather History & Observations

Time (EDT) Temp. Heat Index Dew Point Humidity Pressure Visibility Wind Dir Wind Speed Gust Speed Precip Events Conditions
12:15 AM 75.2 °F - 73.4 °F 94% 30.08 in 10.0 mi South 3.5 mph - N/A   Clear
12:35 AM 75.2 °F - 73.4 °F 94% 30.08 in 10.0 mi South 3.5 mph - N/A   Clear
12:55 AM 75.2 °F - 73.4 °F 94% 30.08 in 10.0 mi Calm Calm - N/A   Clear
1:15 AM 75.2 °F - 73.4 °F 94% 30.07 in 10.0 mi Calm Calm - N/A   Clear
1:35 AM 75.2 °F - 73.4 °F 94% 30.06 in 9.0 mi South 3.5 mph - N/A   Clear
1:55 AM 75.2 °F - 73.4 °F 94% 30.06 in 9.0 mi Calm Calm - N/A   Clear
2:15 AM 75.2 °F - 73.4 °F 94% 30.05 in 8.0 mi Calm Calm - N/A   Clear
2:35 AM 75.2 °F - 73.4 °F 94% 30.05 in 8.0 mi Calm Calm - N/A   Clear
2:55 AM 73.4 °F - 71.6 °F 94% 30.05 in 7.0 mi Calm Calm - N/A   Clear
3:15 AM 73.4 °F - 71.6 °F 94% 30.05 in 7.0 mi Calm Calm - N/A   Clear
3:35 AM 73.4 °F - 71.6 °F 94% 30.04 in 7.0 mi Calm Calm - N/A   Clear
3:55 AM 73.4 °F - 71.6 °F 94% 30.04 in 6.0 mi Calm Calm - N/A   Clear
4:15 AM 73.4 °F - 71.6 °F 94% 30.04 in 4.0 mi Calm Calm - N/A   Clear
4:35 AM 73.4 °F - 71.6 °F 94% 30.03 in 3.0 mi Calm Calm - N/A   Clear
4:55 AM 73.4 °F - 71.6 °F 94% 30.03 in 3.0 mi Calm Calm - N/A   Partly Cloudy
5:15 AM 73.4 °F - 71.6 °F 94% 30.03 in 3.0 mi Calm Calm - N/A   Clear
5:35 AM 73.4 °F - 71.6 °F 94% 30.04 in 3.0 mi Calm Calm - N/A   Clear
5:55 AM 73.4 °F - 71.6 °F 94% 30.03 in 3.0 mi Calm Calm - N/A   Clear
6:15 AM 73.4 °F - 71.6 °F 94% 30.04 in 3.0 mi Calm Calm - N/A   Clear
6:35 AM 71.6 °F - 71.6 °F 100% 30.04 in 2.5 mi Calm Calm - N/A   Clear
6:50 AM 71.6 °F - 71.6 °F 100% 30.05 in 7.0 mi Calm Calm - N/A   Clear
7:50 AM 73.4 °F - 73.4 °F 100% 30.06 in 7.0 mi Calm Calm - N/A   Clear
8:50 AM 80.6 °F 86.2 °F 75.2 °F 84% 30.07 in 10.0 mi South 4.6 mph - N/A   Partly Cloudy
9:50 AM 82.4 °F 90.9 °F 77.0 °F 84% 30.07 in 10.0 mi WSW 5.8 mph - N/A   Scattered Clouds
10:16 AM 84.2 °F 94.1 °F 77.0 °F 79% 30.07 in 10.0 mi WSW 4.6 mph - N/A   Mostly Cloudy
10:50 AM 86.0 °F 93.4 °F 73.4 °F 66% 30.06 in 10.0 mi SW 6.9 mph - N/A   Mostly Cloudy
11:50 AM 89.6 °F 98.2 °F 73.4 °F 59% 30.05 in 10.0 mi SW 9.2 mph - N/A   Mostly Cloudy
1:50 PM 86.0 °F 95.1 °F 75.2 °F 70% 30.04 in 10.0 mi SW 5.8 mph - N/A   Scattered Clouds
2:50 PM 87.8 °F 95.6 °F 73.4 °F 62% 30.02 in 10.0 mi West 8.1 mph - N/A   Scattered Clouds
3:50 PM 89.6 °F 98.2 °F 73.4 °F 59% 30.01 in 10.0 mi West 9.2 mph - N/A   Scattered Clouds
5:50 PM 87.8 °F 93.8 °F 71.6 °F 58% 29.99 in 10.0 mi West 5.8 mph - N/A   Partly Cloudy
7:55 PM 84.2 °F 90.9 °F 73.4 °F 70% 29.98 in 10.0 mi WSW 5.8 mph - N/A   Clear
8:15 PM 82.4 °F 88.2 °F 73.4 °F 74% 29.98 in 10.0 mi WSW 5.8 mph - N/A   Clear
8:35 PM 82.4 °F 88.2 °F 73.4 °F 74% 29.99 in 10.0 mi WSW 5.8 mph - N/A   Clear
8:55 PM 80.6 °F 85.4 °F 73.4 °F 79% 29.99 in 10.0 mi SSW 4.6 mph - N/A   Clear
9:15 PM 80.6 °F 85.4 °F 73.4 °F 79% 30.00 in 10.0 mi SSW 5.8 mph - N/A   Clear
9:35 PM 80.6 °F 85.4 °F 73.4 °F 79% 30.01 in 10.0 mi SW 4.6 mph - N/A   Clear
9:55 PM 78.8 °F - 73.4 °F 83% 30.01 in 10.0 mi SW 4.6 mph - N/A   Clear
10:15 PM 78.8 °F - 73.4 °F 83% 30.01 in 10.0 mi SW 4.6 mph - N/A   Clear
10:35 PM 78.8 °F - 75.2 °F 89% 30.01 in 10.0 mi Calm Calm - N/A   Clear
10:55 PM 78.8 °F - 73.4 °F 83% 30.01 in 10.0 mi Calm Calm - N/A   Clear
11:15 PM 78.8 °F - 73.4 °F 83% 30.00 in 10.0 mi Calm Calm - N/A   Clear
11:35 PM 77.0 °F - 73.4 °F 89% 30.00 in 10.0 mi Calm Calm - N/A   Clear